This is the latest recevied weather packets stored in our database for station/object K6CEG. If no packets are shown the sender has not sent any weather packets the latest 10 day(s).
| Time | Temp. | Humidity | Pressure | Rain* | Wind** | Luminosity | Snow |
|---|---|---|---|---|---|---|---|
| 1788318996 | 22.22° C | 57% | 1015.7 hPa | 0 mm | - | 0 W/m² | - |
| 1788318692 | 22.22° C | 56% | 1015.9 hPa | 0 mm | - | 0 W/m² | - |
| 1788318387 | 22.22° C | 55% | 1015.9 hPa | 0 mm | - | 0 W/m² | - |
| 1788318087 | 22.78° C | 54% | 1015.8 hPa | 0 mm | - | 0 W/m² | - |
| 1788317786 | 22.78° C | 53% | 1015.9 hPa | 0 mm | - | 0 W/m² | - |
| 1788317482 | 22.78° C | 52% | 1015.8 hPa | 0 mm | - | 0 W/m² | - |
| 1788317178 | 22.78° C | 51% | 1015.7 hPa | 0 mm | - | 0 W/m² | - |
| 1788316878 | 23.33° C | 50% | 1015.7 hPa | 0 mm | - | 0 W/m² | - |
| 1788316574 | 23.33° C | 47% | 1015.5 hPa | 0 mm | - | 0 W/m² | - |
| 1788316268 | 23.89° C | 45% | 1015.5 hPa | 0 mm | - | 0 W/m² | - |
| 1788315968 | 23.89° C | 44% | 1015.4 hPa | 0 mm | - | 0 W/m² | - |
| 1788315664 | 23.89° C | 44% | 1015.7 hPa | 0 mm | - | 0 W/m² | - |
| 1788315359 | 24.44° C | 42% | 1015.4 hPa | 0 mm | - | 3 W/m² | - |
| 1788315054 | 25° C | 42% | 1015.4 hPa | 0 mm | - | 3 W/m² | - |
| 1788314750 | 25° C | 40% | 1015.4 hPa | 0 mm | - | 5 W/m² | - |
| 1788314446 | 25.56° C | 38% | 1015.5 hPa | 0 mm | - | 9 W/m² | - |
| 1788314141 | 26.67° C | 35% | 1015.5 hPa | 0 mm | - | 12 W/m² | - |
| 1788313837 | 26.67° C | 30% | 1015.3 hPa | 0 mm | - | 11 W/m² | - |
| 1788313533 | 26.67° C | 31% | 1015.5 hPa | 0 mm | - | 13 W/m² | - |
| 1788313228 | 26.67° C | 29% | 1015.4 hPa | 0 mm | - | 14 W/m² | - |
| 1788312927 | 26.67° C | 28% | 1015.5 hPa | 0 mm | - | 18 W/m² | - |
| 1788312623 | 27.78° C | 30% | 1015.5 hPa | 0 mm | - | 17 W/m² | - |
| 1788312318 | 27.78° C | 30% | 1015.4 hPa | 0 mm | - | 18 W/m² | - |
| 1788312014 | 27.78° C | 28% | 1015.5 hPa | 0 mm | - | 22 W/m² | - |
| 1788311709 | 27.22° C | 28% | 1015.4 hPa | 0 mm | - | 20 W/m² | - |
* Rain latest hour (hover to see other rain measurements)
** Current wind speed in m/s (hover to see current wind gust speed)